This is the latest recevied weather packets stored in our database for station/object KB3HLL. If no packets are shown the sender has not sent any weather packets the latest 1 day(s).
| Time | Temp. | Humidity | Pressure | Rain* | Wind** | Luminosity | Snow |
|---|---|---|---|---|---|---|---|
| 1836274676 | 14.44° C | 71% | 1021 hPa | 0 mm | 1.79 m/s, 333° | 0 W/m² | - |
| 1836274526 | 14.44° C | 72% | 1021 hPa | 0 mm | 1.34 m/s, 338° | 0 W/m² | - |
| 1836274375 | 14.44° C | 72% | 1021 hPa | 0 mm | 2.24 m/s, 342° | 0 W/m² | - |
| 1836274226 | 14.44° C | 72% | 1021 hPa | 0 mm | 0.45 m/s, 339° | 0 W/m² | - |
| 1836274075 | 14.44° C | 72% | 1021 hPa | 0 mm | 0.89 m/s, 2° | 0 W/m² | - |
| 1778048779 | 18.33° C | 59% | 1010.1 hPa | 0 mm | 1.79 m/s, 213° | 0 W/m² | - |
| 1778048478 | 18.33° C | 59% | 1010.1 hPa | 0 mm | 1.79 m/s, 191° | 0 W/m² | - |
| 1778048178 | 18.33° C | 60% | 1010.2 hPa | 0 mm | 1.79 m/s, 206° | 0 W/m² | - |
| 1778047877 | 18.33° C | 62% | 1010.2 hPa | 0 mm | 2.24 m/s, 192° | 0 W/m² | - |
| 1778047577 | 18.33° C | 62% | 1010.2 hPa | 0 mm | 1.34 m/s, 185° | 0 W/m² | - |
| 1778047278 | 18.33° C | 62% | 1010.2 hPa | 0 mm | 1.34 m/s, 192° | 0 W/m² | - |
| 1778046980 | 18.33° C | 62% | 1010.2 hPa | 0 mm | 1.79 m/s, 204° | 0 W/m² | - |
| 1778046677 | 18.33° C | 61% | 1010.3 hPa | 0 mm | 1.79 m/s, 184° | 0 W/m² | - |
| 1778046380 | 18.33° C | 60% | 1010.4 hPa | 0 mm | 2.24 m/s, 191° | 0 W/m² | - |
| 1778046080 | 18.33° C | 61% | 1010.5 hPa | 0 mm | 2.24 m/s, 209° | 0 W/m² | - |
| 1778045777 | 18.33° C | 61% | 1010.6 hPa | 0 mm | 1.34 m/s, 214° | 0 W/m² | - |
| 1778045478 | 18.33° C | 62% | 1010.6 hPa | 0 mm | 1.79 m/s, 203° | 0 W/m² | - |
| 1778045178 | 18.33° C | 64% | 1010.7 hPa | 0 mm | 0.89 m/s, 194° | 0 W/m² | - |
| 1778044878 | 18.33° C | 65% | 1010.7 hPa | 0 mm | 1.79 m/s, 208° | 0 W/m² | - |
| 1778044577 | 18.33° C | 65% | 1010.7 hPa | 0 mm | 1.34 m/s, 192° | 0 W/m² | - |
| 1778044280 | 18.33° C | 67% | 1010.7 hPa | 0 mm | 1.79 m/s, 188° | 0 W/m² | - |
| 1778043978 | 18.33° C | 68% | 1010.7 hPa | 0 mm | 2.24 m/s, 189° | 0 W/m² | - |
| 1778043681 | 18.33° C | 68% | 1010.7 hPa | 0 mm | 1.79 m/s, 185° | 0 W/m² | - |
| 1778043378 | 18.33° C | 69% | 1010.7 hPa | 0 mm | 1.79 m/s, 169° | 0 W/m² | - |
| 1778043077 | 18.33° C | 68% | 1010.7 hPa | 0 mm | 2.24 m/s, 177° | 0 W/m² | - |
* Rain latest hour (hover to see other rain measurements)
** Current wind speed in m/s (hover to see current wind gust speed)